Change the Weather History Date:

Wednesday, April 17, 2013

  Actual Average (KRMG) Record (KRMG)
Temperature  
Mean Temperature 71 °F 60 °F  
Max Temperature 82 °F 73 °F 91 °F (2006)
Min Temperature 60 °F 47 °F 35 °F (1999)
Degree Days  
Heating Degree Days 0 6  
Month to date heating degree days 128  
Since 1 July heating degree days 3155  
Cooling Degree Days 6 1  
Month to date cooling degree days 13  
Year to date cooling degree days 17  
Growing Degree Days 21 (Base 50)    
Moisture  
Dew Point 60 °F    
Average Humidity 70    
Maximum Humidity 94    
Minimum Humidity 45    
Precipitation  
Precipitation 0.20 in 0.12 in 2.50 in (1998)
Month to date precipitation 2.05  
Year to date precipitation 16.69  
Sea Level Pressure  
Sea Level Pressure 30.13 in    
Wind  
Wind Speed 3 mph (SSE)    
Max Wind Speed 14 mph    
Max Gust Speed 26 mph    
Visibility 10 miles    
Events Rain , Thunderstorm    
T = Trace of Precipitation, MM = Missing Value Source: NWS Daily Summary

Daily Weather History Graph

Daily Weather History Graph

Search for Another Location

Airport or City:

Trip Planner

Search our weather history database for the weather conditions in past years. The results will help you decide how hot, cold, wet, or windy it might be!

Date:

Astronomy

Apr. 17, 2013 Rise Set
Actual Time 6:08 AM CDT 7:16 PM CDT
Civil Twilight 5:42 AM CDT 7:42 PM CDT
Nautical Twilight 5:11 AM CDT 8:13 PM CDT
Astronomical Twilight 4:39 AM CDT 8:45 PM CDT
Moon 11:26 AM CDT (4/17) 12:48 AM CDT (4/17)
Length of Visible Light 13h 59m
Length of Day
13h 07m
Waxing Crescent, 42% of the Moon is Illuminated
Apr 17
Waxing Crescent
Apr 18
First Quarter
Apr 25
Full
May 2
Last Quarter
May 9
New

Hourly Weather History & Observations

Time (CDT) Temp. Heat Index Dew Point Humidity Pressure Visibility Wind Dir Wind Speed Gust Speed Precip Events Conditions
12:15 AM 68.0 °F - 60.8 °F 78% 30.16 in 10.0 mi Calm Calm - N/A   Mostly Cloudy
12:35 AM 68.0 °F - 60.8 °F 78% 30.16 in 10.0 mi Calm Calm - N/A   Overcast
12:55 AM 68.0 °F - 60.8 °F 78% 30.16 in 10.0 mi Calm Calm - N/A   Overcast
1:15 AM 68.0 °F - 60.8 °F 78% 30.16 in 10.0 mi Calm Calm - N/A   Overcast
1:35 AM 68.0 °F - 60.8 °F 78% 30.16 in 10.0 mi SW 3.5 mph - N/A   Mostly Cloudy
1:55 AM 68.0 °F - 60.8 °F 78% 30.16 in 10.0 mi Calm Calm - N/A   Scattered Clouds
2:15 AM 68.0 °F - 60.8 °F 78% 30.15 in 10.0 mi Calm Calm - N/A   Clear
2:35 AM 66.2 °F - 60.8 °F 83% 30.16 in 10.0 mi Calm Calm - N/A   Clear
2:55 AM 64.4 °F - 59.0 °F 83% 30.16 in 10.0 mi Calm Calm - N/A   Clear
3:15 AM 64.4 °F - 59.0 °F 83% 30.16 in 10.0 mi Calm Calm - N/A   Mostly Cloudy
3:35 AM 64.4 °F - 59.0 °F 83% 30.16 in 10.0 mi Calm Calm - N/A   Mostly Cloudy
3:55 AM 64.4 °F - 60.8 °F 88% 30.16 in 10.0 mi Calm Calm - N/A   Mostly Cloudy
4:15 AM 62.6 °F - 59.0 °F 88% 30.16 in 10.0 mi Calm Calm - N/A   Scattered Clouds
4:35 AM 62.6 °F - 59.0 °F 88% 30.16 in 10.0 mi Calm Calm - N/A   Scattered Clouds
4:55 AM 62.6 °F - 59.0 °F 88% 30.16 in 10.0 mi Calm Calm - N/A   Clear
5:15 AM 62.6 °F - 59.0 °F 88% 30.16 in 10.0 mi Calm Calm - N/A   Mostly Cloudy
5:35 AM 60.8 °F - 59.0 °F 94% 30.17 in 7.0 mi Calm Calm - N/A   Overcast
5:55 AM 62.6 °F - 59.0 °F 88% 30.18 in 7.0 mi Calm Calm - N/A   Scattered Clouds
6:15 AM 60.8 °F - 59.0 °F 94% 30.18 in 7.0 mi Calm Calm - 0.06 in   Scattered Clouds
6:35 AM 60.8 °F - 59.0 °F 94% 30.19 in 7.0 mi Calm Calm - 0.06 in   Mostly Cloudy
6:55 AM 62.6 °F - 60.8 °F 94% 30.20 in 7.0 mi Calm Calm - 0.06 in   Mostly Cloudy
7:15 AM 64.4 °F - 60.8 °F 88% 30.20 in 10.0 mi Calm Calm - N/A   Mostly Cloudy
7:35 AM 68.0 °F - 60.8 °F 78% 30.21 in 10.0 mi Calm Calm - 0.01 in   Scattered Clouds
7:55 AM 69.8 °F - 60.8 °F 73% 30.21 in 10.0 mi Calm Calm - 0.01 in   Clear
8:15 AM 71.6 °F - 60.8 °F 69% 30.20 in 10.0 mi East 3.5 mph - N/A   Clear
8:35 AM 71.6 °F - 60.8 °F 69% 30.20 in 10.0 mi Calm Calm - N/A   Clear
9:15 AM 73.4 °F - 60.8 °F 65% 30.19 in 10.0 mi Calm Calm - N/A   Clear
9:35 AM 75.2 °F - 59.0 °F 57% 30.19 in 10.0 mi South 4.6 mph - N/A   Clear
9:55 AM 77.0 °F - 59.0 °F 54% 30.19 in 10.0 mi SW 8.1 mph - N/A   Scattered Clouds
10:15 AM 75.2 °F - 59.0 °F 57% 30.19 in 10.0 mi SSW 4.6 mph - N/A   Mostly Cloudy
10:35 AM 77.0 °F - 60.8 °F 57% 30.18 in 10.0 mi Calm Calm - N/A   Scattered Clouds
10:55 AM 78.8 °F - 60.8 °F 54% 30.18 in 10.0 mi South 6.9 mph - N/A   Clear
11:15 AM 78.8 °F - 60.8 °F 54% 30.16 in 10.0 mi SW 4.6 mph - N/A   Clear
11:35 AM 78.8 °F - 60.8 °F 54% 30.16 in 10.0 mi Calm Calm - N/A   Scattered Clouds
11:55 AM 80.6 °F 81.5 °F 60.8 °F 51% 30.16 in 10.0 mi SSW 6.9 mph - N/A   Scattered Clouds
12:15 PM 80.6 °F 81.1 °F 59.0 °F 48% 30.15 in 10.0 mi SSE 6.9 mph - N/A   Scattered Clouds
12:35 PM 80.6 °F 81.5 °F 60.8 °F 51% 30.14 in 10.0 mi SSW 6.9 mph - N/A   Scattered Clouds
12:55 PM 82.4 °F 82.5 °F 59.0 °F 45% 30.14 in 10.0 mi South 5.8 mph - N/A   Scattered Clouds
1:15 PM 82.4 °F 82.5 °F 59.0 °F 45% 30.13 in 10.0 mi SW 8.1 mph 19.6 mph N/A   Scattered Clouds
1:35 PM 80.6 °F 81.1 °F 59.0 °F 48% 30.13 in 10.0 mi South 4.6 mph - N/A   Scattered Clouds
1:55 PM 82.4 °F 82.5 °F 59.0 °F 45% 30.11 in 10.0 mi SSW 9.2 mph - N/A   Scattered Clouds
2:15 PM 82.4 °F 82.5 °F 59.0 °F 45% 30.10 in 10.0 mi SW 11.5 mph - N/A   Scattered Clouds
2:35 PM 82.4 °F 82.5 °F 59.0 °F 45% 30.09 in 10.0 mi SW 9.2 mph - N/A   Scattered Clouds
2:55 PM 82.4 °F 82.5 °F 59.0 °F 45% 30.09 in 10.0 mi South 5.8 mph - N/A   Scattered Clouds
3:35 PM 80.6 °F 81.1 °F 59.0 °F 48% 30.08 in 10.0 mi South 4.6 mph - N/A   Mostly Cloudy
3:55 PM 80.6 °F 81.5 °F 60.8 °F 51% 30.07 in 10.0 mi South 4.6 mph - N/A Rain Light Rain
4:15 PM 78.8 °F - 60.8 °F 54% 30.08 in 10.0 mi South 8.1 mph - N/A Rain Light Rain
4:35 PM 77.0 °F - 59.0 °F 54% 30.08 in 10.0 mi South 4.6 mph - N/A Thunderstorm Unknown
4:55 PM 73.4 °F - 60.8 °F 65% 30.08 in 10.0 mi South 11.5 mph 17.3 mph N/A Rain Light Rain
5:15 PM 73.4 °F - 59.0 °F 61% 30.09 in 10.0 mi SSW 12.7 mph 17.3 mph 0.02 in   Scattered Clouds
5:35 PM 71.6 °F - 59.0 °F 64% 30.09 in 10.0 mi SW 13.8 mph 26.5 mph 0.02 in   Mostly Cloudy
5:55 PM 68.0 °F - 60.8 °F 78% 30.08 in 10.0 mi Calm Calm - 0.02 in Rain Light Rain
6:15 PM 68.0 °F - 60.8 °F 78% 30.08 in 10.0 mi Calm Calm - N/A   Mostly Cloudy
6:35 PM 68.0 °F - 60.8 °F 78% 30.08 in 10.0 mi NE 12.7 mph - N/A   Mostly Cloudy
6:55 PM 69.8 °F - 60.8 °F 73% 30.10 in 10.0 mi NNE 3.5 mph - N/A   Overcast
7:15 PM 68.0 °F - 60.8 °F 78% 30.10 in 10.0 mi NE 8.1 mph - N/A   Mostly Cloudy
7:35 PM 68.0 °F - 59.0 °F 73% 30.10 in 10.0 mi NNE 5.8 mph - 0.11 in   Scattered Clouds
7:55 PM 68.0 °F - 59.0 °F 73% 30.09 in 10.0 mi ENE 3.5 mph - 0.11 in   Scattered Clouds
8:15 PM 68.0 °F - 59.0 °F 73% 30.09 in 10.0 mi NE 3.5 mph - N/A   Scattered Clouds
8:35 PM 68.0 °F - 59.0 °F 73% 30.09 in 10.0 mi ENE 5.8 mph - N/A   Clear
8:55 PM 68.0 °F - 59.0 °F 73% 30.09 in 10.0 mi NE 4.6 mph - N/A   Clear
9:15 PM 68.0 °F - 59.0 °F 73% 30.10 in 10.0 mi NE 4.6 mph - N/A   Clear
9:35 PM 68.0 °F - 59.0 °F 73% 30.10 in 10.0 mi ENE 9.2 mph - N/A   Clear
9:55 PM 68.0 °F - 59.0 °F 73% 30.09 in 10.0 mi ESE 12.7 mph 19.6 mph N/A   Clear
10:15 PM 68.0 °F - 59.0 °F 73% 30.09 in 10.0 mi ESE 6.9 mph 16.1 mph N/A   Clear
10:35 PM 68.0 °F - 57.2 °F 68% 30.08 in 10.0 mi ESE 10.4 mph 18.4 mph N/A   Clear
10:55 PM 68.0 °F - 57.2 °F 68% 30.07 in 10.0 mi ESE 8.1 mph - N/A   Clear
11:15 PM 68.0 °F - 59.0 °F 73% 30.06 in 10.0 mi ESE 5.8 mph - N/A   Clear
11:35 PM 68.0 °F - 59.0 °F 73% 30.06 in 10.0 mi East 3.5 mph - N/A   Clear
11:55 PM 66.2 °F - 59.0 °F 78% 30.07 in 10.0 mi Calm Calm - N/A   Clear